Sao Paulo/Congonhas Airport

Airport
ICAO code: 
SBSP
IATA Code: 
CGH
Summary
ICAO Region: 
CARSAM
Territory: 
Location: 
Congonhas, São Paulo
Serving: 
São Paulo
Elevation: 
2631 ft
Coordinates: 
Aerial View: 
23° 37' 33.996" S, 46° 39' 23.004" W
Metar
Observation
SBSP 210531Z AUTO 07004KT 010V100 9000 // BKN006/// 20/19 Q1018
Station
Sao Paulo/Congonhas Aeroporto
Date/Time
2022-01-21 05:31:00
Wind direction
70°
Wind speed
04 kts
Lowest cloud amount
broken clouds
Temperature
20°C
Dew point
19°C
Humidity
93%
QNH
1018 hPa
Weather condition
n/a

São Paulo/Congonhas Airport Portuguese pronunciation: is one of the four commercial airports serving São Paulo, Brazil.

Climatology

Humid “subtropical” climate (Köppen climate classification Cfa)

Runways

Designator Length Width Surface Rops
17L/35R 1435 45 ASP Yes/Yes
17R/35L 1940 45 ASP Yes/Yes
Airport map: 
Aerial View: 

Accidents and Serious Incidents at or in the vicinity of SBSP

SKYbrary Partners:

Safety knowledge contributed by: